Regional Weather Roundup
Issued by NWS

Home | Current Version | Previous Version | Text Only | Print | Product List | Glossary Off
Versions: 1 2 3 4 5 6 7 8 9 10 11 12 13 14 15 16 17 18 19 20 21 22 23 24 25 26 27 28 29 30 31 32 33 34 35 36 37 38 39 40 41 42 43 44 45 46 47 48 49 50

694
ASUS45 KPSR 171910
RWRAZ

ARIZONA HOURLY REGIONAL WEATHER ROUNDUP
NATIONAL WEATHER SERVICE PHOENIX AZ
1200 PM MST FRI NOV 17 2017

NOTE: FAIR INDICATES FEW OR NO CLOUDS BELOW 12,000 FEET WITH NO
SIGNIFICANT WEATHER AND/OR OBSTRUCTIONS TO VISIBILITY.

AZZ001>003-036-172000-
NORTHWEST ARIZONA

CITY           SKY/WX    TMP DP  RH WIND       PRES   REMARKS
BULLHEAD CITY  CLOUDY    72  39  30 W3        29.94F
KINGMAN        CLOUDY    67  39  35 SW22G29   30.03F
$$

AZZ004>008-015-016-018-172000-
NORTH CENTRAL ARIZONA

CITY           SKY/WX    TMP DP  RH WIND       PRES   REMARKS
GRAND CANYON   CLOUDY    50  37  61 SW15      30.08F
WILLIAMS       CLOUDY    46  39  76 SW13G18   30.14F
PRESCOTT       CLOUDY    59  38  45 SW18G25   30.12R
FLAGSTAFF      LGT RAIN  44  35  70 SW15      30.13F
PAYSON           N/A     61  30  31 SW12      30.15F
PAGE           MOSUNNY   68  37  32 SW13G21   29.89F
$$

AZZ009>014-017-172000-
NORTHEAST ARIZONA

CITY           SKY/WX    TMP DP  RH WIND       PRES   REMARKS
WINSLOW        PTSUNNY   65  36  34 SW24G33   30.06F
SAINT JOHNS    PTSUNNY   68  28  22 W28G37    30.06F
WINDOW ROCK    LGT RAIN  54  36  50 SW21G33   30.08F
SHOW LOW       SUNNY     61  30  31 S26G36    30.14S
$$

AZZ540-542>544-546-548-172000-
GREATER PHOENIX AREA

CITY           SKY/WX    TMP DP  RH WIND       PRES   REMARKS
PHOENIX        CLOUDY    73  32  22 VRB3      29.99F
BUCKEYE        CLOUDY    73  48  40 SE5       30.00F
GLENDALE       PTSUNNY   70  37  30 E6        30.01F
LUKE AFB       CLOUDY    69  44  41 CALM      29.98F HAZE
DEER VALLEY    CLOUDY    70  38  31 SE5       30.00F
SCOTTSDALE     LGT RAIN  69  44  40 NE3       30.02F
MESA-FALCON    PTSUNNY   75  30  19 SW6       30.02F
MESA-GATEWAY   PTSUNNY   75  28  17 CALM      30.02F
CHANDLER       PTSUNNY   73  32  21 CALM      30.01S
$$

AZZ539-553-172000-
SOUTHWEST MARICOPA COUNTY AND PINAL COUNTY

CITY           SKY/WX    TMP DP  RH WIND       PRES   REMARKS
CASA GRANDE    NOT AVBL
GILA BEND      PTSUNNY   81  37  21 W3        29.98F
$$

AZZ503-504-507>509-172000-
SOUTHEAST ARIZONA

CITY           SKY/WX    TMP DP  RH WIND       PRES   REMARKS
TUCSON         SUNNY     81  24  12 VRB6      30.05F
DAVIS-MONTHAN  SUNNY     82  22  11 CALM      30.03F
RYAN FIELD     SUNNY     81  27  13 CALM      30.05F
NOGALES        SUNNY     81  24  12 SW13G22   30.11F
SIERRA VISTA   SUNNY     77  18  11 W13G21    30.14F
DOUGLAS        SUNNY     77  19  11 W7        30.11F
SAFFORD        SUNNY     76  23  14 VRB3      30.02F
$$

AZZ532-172000-
SOUTHWEST ARIZONA

CITY           SKY/WX    TMP DP  RH WIND       PRES   REMARKS
YUMA           PTSUNNY   79  47  32 W5        29.97F
$$

CAZ041-043-047-048-061-525>527-560>570-172000-
SOUTHERN CALIFORNIA

CITY           SKY/WX    TMP DP  RH WIND       PRES   REMARKS
DOWNTOWN L.A.  PTSUNNY   72  58  61 CALM      30.06F
L.A. AIRPORT   PTSUNNY   69  61  75 W12       30.08F
SAN DIEGO      CLOUDY    70  54  56 NW7       30.09S
BURBANK        SUNNY     69  55  60 S7        30.07F
ONTARIO        PTSUNNY   68  49  50 SW6       30.08F
RIVERSIDE      PTSUNNY   68  50  52 W3        30.09F
PALM SPRINGS   PTSUNNY   76  50  40 CALM      29.98S
EL CENTRO NAS  CLOUDY    81  42  25 NW6       29.96F
IMPERIAL       CLOUDY    81  44  27 W8        29.95F
BLYTHE         CLOUDY    77  43  29 SW8       29.94F
NEEDLES        CLOUDY    77  38  24 S9        29.96F
$$

NVZ020-UTZ003-172000-
SOUTHERN NEVADA-UTAH

CITY           SKY/WX    TMP DP  RH WIND       PRES   REMARKS
LAS VEGAS      PTSUNNY   73  42  32 SW23G36   29.85F
SALT LAKE CITY LGT RAIN  40  38  93 E6        29.83F FOG
$$

NMZ009-TXZ055-172000-
NEW MEXICO-WEST TEXAS

CITY           SKY/WX    TMP DP  RH WIND       PRES   REMARKS
ALBUQUERQUE    PTSUNNY   66  19  16 SW10      30.02F
EL PASO        MOSUNNY   79  27  14 W16       30.05F
$$


........................KEY........................
SKY/WX - SKY CONDITION/WEATHER
TMP    - TEMPERATURE IN FAHRENHEIT
DP     - DEW POINT IN FAHRENHEIT
RH     - RELATIVE HUMIDITY IN PERCENT
WIND   - DIRECTION AND SPEED IN MILES PER HOUR (MPH)
VRB    - VARIABLE WIND DIRECTION
PRES   - MEAN SEA LEVEL PRESSURE IN INCHES OF MERCURY
         F - FALLING PRESSURE   R - RISING PRESSURE
         S - STEADY PRESSURE
VSB    - VISIBILITY IN MILES
HX     - HEAT INDEX IN FAHRENHEIT
WCI    - WIND CHILL INDEX IN FAHRENHEIT
TC     - TEMPERATURE IN CELSIUS WHICH IS ALSO KNOWN AS
         TEMPERATURE IN CENTIGRADE
AFB    - AIR FORCE BASE
         LUKE AFB IS LUKE AIR FORCE BASE
         DAVIS-MONTHAN IS DAVIS-MONTHAN AIR FORCE BASE
NAS    - NAVAL AIR STATION
         EL CENTRO NAS IS EL CENTRO NAVAL AIR STATION
N/A    - NOT AVAILABLE





USA.gov is the U.S. government's official web portal to all federal, state and local government web resources and services.